Regional Weather Roundup
Issued by NWS Albany, NY

Home | Current Version | Previous Version | Graphics & Text | Print | Product List | Glossary Off
Versions: 1 2 3 4 5 6 7 8 9 10 11 12 13 14 15 16 17 18 19 20 21 22 23 24 25 26 27

000
ASUS41 KALY 080610
RWRALY

NEW YORK STATE HOURLY WEATHER ROUNDUP
NATIONAL WEATHER SERVICE ALBANY NY
100 AM EST THU DEC 08 2016

NOTE: "FAIR" INDICATES FEW OR NO CLOUDS BELOW 12,000 FEET WITH NO
SIGNIFICANT WEATHER AND/OR NO OBSTRUCTIONS TO VISIBILITY.

NYZ032-033-038>043-046>054-057>066-NYZ062>081-082-084-080700-
EAST


CITY           SKY/WX    TMP DP  RH WIND       PRES   REMARKS
ALBANY         FOG       34  33  96 CALM      29.98S VSB 1/8
GLENS FALLS    FOG       29  25  85 CALM      29.96F VSB 1/2
POUGHKEEPSIE   PTCLDY    30  30 100 CALM      29.98F
NEWBURGH       MOCLDY    34  34 100 W6        29.99F WCI  29
MONTGOMERY     CLOUDY    33  31  92 SW3       29.98S FOG
WHITE PLAINS   PTCLDY    38  33  82 W5        29.97F WCI  34
ISLIP          PTCLDY    34  32  92 CALM      29.99F
NEW YORK CITY  PTCLDY    44  34  67 SW3       30.00F
CENTRAL PARK   CLEAR     42  31  64 VRB3      30.02F
$$

NYZ005>009-017-018-044>046-055-056-080700-
CENTRAL


CITY           SKY/WX    TMP DP  RH WIND       PRES   REMARKS
FULTON         MOCLDY    34  26  72 S6        29.95F WCI  29
SYRACUSE       CLOUDY    32  28  85 S3        29.95F
ROME           CLOUDY    29  28  96 E3        29.97F
ELMIRA         CLOUDY    29  26  89 W3        29.97S
BINGHAMTON     CLOUDY    32  25  75 W7        29.92F WCI  26
MONTICELLO     CLOUDY    30  28  93 CALM      29.96F
$$

NYZ026>034-041>043-087-080700-
NORTH


CITY           SKY/WX    TMP DP  RH WIND       PRES   REMARKS
WATERTOWN      CLOUDY    37  31  78 W8        29.91F WCI  31
FORT DRUM      NOT AVBL
OGDENSBURG     MOCLDY    34  28  79 S7        29.89F WCI  28
MASSENA        CLOUDY    33  25  72 S8        29.90F WCI  26
SARANAC LAKE   CLOUDY    30  26  85 SW3       29.85S
PLATTSBURGH    CLOUDY    37  26  64 CALM      29.92R
$$

NYZ001>004-010>016-019>021-085-080700-
WEST


CITY           SKY/WX    TMP DP  RH WIND       PRES   REMARKS
NIAGARA FALLS  CLOUDY    34  24  67 W13       29.93S WCI  25
BUFFALO        FLURRIES  35  26  69 W9        29.94R WCI  28
DUNKIRK        CLOUDY    35  26  69 SW14G22   29.96F WCI  26
JAMESTOWN      PTCLDY    30  19  64 SW12      29.94S WCI  21
WELLSVILLE     CLEAR     29  20  69 SW5       29.93S WCI  24
ROCHESTER      CLOUDY    34  25  69 SW5       29.94F WCI  30
PENN YAN       CLOUDY    35  23  61 SW12      29.95F WCI  27
$$

             KEY
       WCI = WIND CHILL INDEX
       VSB = VISIBILITY
       HX  = HEAT INDEX
$$




USA.gov is the U.S. government's official web portal to all federal, state and local government web resources and services.